Location: Theydon Bois
(51.6750°N, 0.1050°E)
Time: 05:47:19
(UTC+00:00)

Envisat - Pass Details

Date: 12 December 2019
Orbit: 764 x 766 km, 98.1° (Epoch: 20 January)

Event Time Altitude Azimuth Distance (km) Brightness Sun altitude
Rises 16:24:50 0° 125° (SE) 3,228 6.0 -5.3°
Reaches altitude 10° 16:27:29 10° 113° (ESE) 2,306 5.1 -5.7°
Maximum altitude 16:31:33 25° 59° (ENE) 1,518 4.0 -6.2°
Drops below altitude 10° 16:35:39 10° 6° (N) 2,317 5.2 -6.8°
Sets 16:38:18 0° 353° (N) 3,248 6.0 -7.1°
